Luxor, Egypt

8:06 AM EET on March 23, 2017 (GMT +0200)
Luxor International

Weather History for HELX - October, 2012

Change the Weather History Date:

Friday, October 5, 2012

  Actual Average Record
Temperature  
Mean Temperature 87 °F -  
Max Temperature 100 °F 89 °F 105 °F (2008)
Min Temperature 74 °F 63 °F 68 °F (1998)
Cooling Degree Days 22    
Growing Degree Days 37 (Base 50)    
Moisture  
Dew Point 55 °F    
Average Humidity 32    
Maximum Humidity 42    
Minimum Humidity 16    
Precipitation  
Precipitation 0.00 in 0.00 in - ()
Sea Level Pressure  
Sea Level Pressure 29.85 in    
Wind  
Wind Speed 3 mph ()    
Max Wind Speed 9 mph    
Max Gust Speed -    
Visibility 6.1 miles    
Events      
Averages and records for this station are not official NWS values.
T = Trace of Precipitation, MM = Missing Value Source: Averaged Metar Reports

Daily Weather History Graph

Daily Weather History Graph

Search for Another Location

Airport or City:

Trip Planner

Search our weather history database for the weather conditions in past years. The results will help you decide how hot, cold, wet, or windy it might be!

Date:

Astronomy

Oct. 05, 2012 Rise Set
Actual Time 5:43 AM EET 5:31 PM EET
Civil Twilight 5:20 AM EET 5:54 PM EET
Nautical Twilight 4:53 AM EET 6:21 PM EET
Astronomical Twilight 4:26 AM EET 6:47 PM EET
Moon 9:05 PM EET (10/5) 10:07 AM EET (10/5)
Length of Visible Light 12h 34m
Length of Day
11h 48m
Waning Gibbous, 76% of the Moon is Illuminated
Oct 5
Waning Gibbous
Oct 8
Last Quarter
Oct 15
New
Oct 22
First Quarter
Oct 29
Full

Hourly Weather History & Observations

Time (EET) Temp. Heat Index Dew Point Humidity Pressure Visibility Wind Dir Wind Speed Gust Speed Precip Events Conditions
12:00 AM 82.4 °F - 48.2 °F 30% 29.83 in - SSE 3.5 mph - N/A   Clear
1:00 AM 80.6 °F - 51.8 °F 37% 29.83 in - South 2.3 mph - N/A   Clear
2:00 AM 80 °F - 49 °F 23% 29.84 in 6 mi South 3.5 mph - -  
2:00 AM 80.6 °F - 48.2 °F 32% 29.83 in - South 3.5 mph - N/A   Clear
3:00 AM 80.6 °F - 48.2 °F 32% 29.86 in - Calm Calm - N/A   Clear
4:00 AM 77.0 °F - 51.8 °F 41% 29.86 in - SW 2.3 mph - N/A   Clear
5:00 AM 77.0 °F - 48.2 °F 36% 29.86 in - SSE 2.3 mph - N/A   Clear
6:00 AM 75.2 °F - 50.0 °F 41% 29.86 in - SSE 2.3 mph - N/A   Clear
7:00 AM 78.8 °F - 53.6 °F 42% 29.89 in - Calm Calm - N/A   Clear
8:00 AM 83 °F - 56 °F 29% 29.89 in 6 mi ENE 3.5 mph - -   Partly Cloudy
8:00 AM 82.4 °F 81.7 °F 55.4 °F 39% 29.89 in - ENE 3.5 mph - N/A   Clear
9:00 AM 87.8 °F 86.5 °F 57.2 °F 35% 29.92 in - Calm Calm - N/A   Clear
10:00 AM 91.4 °F 89.9 °F 57.2 °F 31% 29.89 in - North 4.6 mph - N/A   Clear
11:00 AM 93.2 °F 92.6 °F 59.0 °F 32% 29.89 in - North 4.6 mph - N/A   Clear
12:00 PM 95.0 °F 94.4 °F 59.0 °F 30% 29.86 in - North 6.9 mph - N/A   Clear
1:00 PM 98.6 °F 98.5 °F 59.0 °F 27% 29.83 in - North 6.9 mph - N/A   Clear
2:00 PM 99 °F - 57 °F 16% 29.81 in 6 mi NNW 6.9 mph - -   Scattered Clouds
2:00 PM 98.6 °F 97.6 °F 57.2 °F 25% 29.83 in 6.2 mi NNW 6.9 mph - N/A   Partly Cloudy
3:00 PM 98.6 °F 97.6 °F 57.2 °F 25% 29.80 in 6.2 mi NNW 9.2 mph - N/A   Scattered Clouds
4:00 PM 95.0 °F 94.4 °F 59.0 °F 30% 29.80 in 6.2 mi North 2.3 mph - N/A   Mostly Cloudy
5:00 PM 95.0 °F 94.4 °F 59.0 °F 30% 29.80 in 6.2 mi WNW 2.3 mph - N/A   Mostly Cloudy
6:00 PM 91.4 °F 89.9 °F 57.2 °F 31% 29.80 in 6.2 mi Calm Calm - N/A   Mostly Cloudy
7:00 PM 89.6 °F 88.1 °F 57.2 °F 33% 29.83 in 6.2 mi Calm Calm - N/A   Scattered Clouds
8:00 PM 87 °F - 56 °F 24% 29.85 in 6 mi Calm Calm - -   Partly Cloudy
8:00 PM 87.8 °F 86.1 °F 55.4 °F 33% 29.86 in 6.2 mi Calm Calm - N/A   Scattered Clouds
9:00 PM 87.8 °F 86.1 °F 55.4 °F 33% 29.86 in 6.2 mi Calm Calm - N/A   Scattered Clouds
10:00 PM 82.4 °F 81.7 °F 55.4 °F 39% 29.89 in - Calm Calm - N/A   Clear
11:00 PM 84.2 °F 83.5 °F 57.2 °F 40% 29.89 in - Calm Calm - N/A   Clear